Wind_Speed
30 31 39 36 32 24 18 14 15 19 14 16 16 18 8 13 16 15 11 10 10 8 6 6 8 8 9 12 10 21 24 28 22 27 37 35 39 42 41 38 37 42 48 45
31 41 35 29 28 24 22 21 21 19 14 14 15 17 16 16 16 15 15 13 12 7 6 3 4 6 9 13 16 3 21 30 15 19 24 23 34 42 40 45 47 45 49 43
38 24 35 33 32 30 25 24 21 18 15 16 15 22 17 16 19 18 14 13 14 11 7 6 3 1 4 9 12 11 16 21 27 26 28 21 33 41 34 45 48 48 52 40
31 40 19 22 39 31 31 23 17 18 19 13 17 11 22 18 23 20 17 12 11 10 7 7 5 3 1 4 7 10 9 8 11 23 26 20 40 34 26 41 48 47 44 31
25 31 30 19 24 33 31 19 18 15 20 24 22 13 19 19 21 23 19 14 10 10 7 3 7 8 5 3 2 5 9 9 6 12 9 20 27 34 31 29 36 31 40 28
20 23 22 34 30 18 19 16 13 16 20 8 23 19 13 18 24 24 20 17 12 13 9 7 6 8 8 7 4 3 5 7 9 10 9 7 13 20 28 32 31 29 32 34
24 25 17 15 15 21 25 17 1 2 2 6 13 16 25 21 22 17 12 15 12 13 15 12 7 3 2 7 7 6 5 5 7 9 11 12 14 16 15 18 21 23 25 28
25 11 29 32 27 17 27 26 9 6 4 4 9 8 11 7 8 16 18 16 16 13 19 16 12 8 4 2 7 9 8 7 6 7 8 10 12 13 15 15 17 18 20 22
15 17 16 14 29 33 23 18 25 17 3 2 8 12 17 25 25 16 18 11 15 15 16 18 17 15 11 9 6 7 12 12 11 11 10 10 11 12 13 14 15 16 19 22
18 6 4 9 13 25 33 14 16 11 5 5 4 6 11 9 20 13 9 13 13 15 15 18 18 17 16 16 15 15 12 17 17 16 16 17 18 18 18 19 20 21 23 24
34 21 13 12 10 14 23 31 24 14 13 4 2 6 10 14 5 8 8 9 9 12 13 14 13 13 13 17 21 19 19 16 17 15 19 22 23 24 24 25 25 27 27 28
17 10 27 35 24 12 11 13 25 23 8 10 11 16 12 10 3 6 8 10 11 11 10 11 12 12 12 8 12 18 23 22 20 21 17 25 26 25 28 30 31 31 31 32
3 2 1 4 13 15 14 18 27 22 20 26 13 7 9 13 10 12 15 15 16 16 17 20 16 15 12 8 8 9 18 20 24 23 23 25 24 26 29 30 26 30 30 32
6 2 3 3 3 9 13 9 13 26 30 21 27 25 25 20 23 24 20 18 17 19 19 21 18 17 16 13 12 12 9 13 19 22 23 24 26 26 28 26 32 32 27 29
3 6 8 10 11 15 19 20 18 20 22 30 29 32 29 26 26 26 24 25 24 24 23 22 22 23 21 19 18 18 18 12 15 16 15 13 18 26 28 30 30 34 33 27
10 5 8 11 11 16 19 19 23 27 26 31 28 32 27 24 24 22 24 22 24 26 25 24 22 22 26 21 21 24 23 15 14 13 14 16 20 23 28 28 30 33 35 38
10 8 10 8 9 14 15 5 7 15 21 21 30 34 32 29 29 27 27 30 29 28 24 26 29 32 28 26 20 21 25 23 18 18 19 22 24 26 26 28 31 34 34 32
9 10 9 11 7 3 10 14 15 11 8 11 22 22 30 30 32 35 23 21 23 22 23 26 26 26 22 21 22 20 23 27 22 22 24 25 28 29 27 28 29 31 32 32
19 17 8 5 8 17 21 20 22 28 31 33 35 28 22 26 36 37 30 26 19 18 21 18 18 20 21 26 26 23 23 26 27 28 25 23 27 29 27 28 28 30 31 33
23 19 18 10 2 4 17 11 16 19 32 32 29 31 25 18 29 34 39 35 29 24 20 23 26 23 24 29 31 29 27 27 28 28 26 24 30 31 32 32 31 33 34 37
20 18 22 19 8 16 19 17 16 10 19 16 24 24 29 18 17 24 31 40 43 39 31 30 27 28 30 30 32 31 29 28 27 28 28 31 32 33 32 34 35 37 36 37
13 13 12 14 8 13 8 2 7 15 24 26 19 23 31 23 16 16 19 22 27 26 29 29 29 30 31 32 30 28 26 28 32 32 34 33 33 35 35 35 37 37 38 38
14 17 8 12 13 14 14 17 22 28 32 29 23 16 26 23 10 15 17 21 22 23 23 25 23 18 16 16 17 19 22 26 28 28 31 33 34 35 34 33 33 29 29 33
18 16 19 22 20 20 24 29 27 31 31 22 19 18 16 18 5 15 18 19 20 24 21 19 15 13 13 23 24 27 29 30 28 29 31 32 33 32 31 30 27 32 35 37
13 17 22 25 25 23 21 20 25 29 27 23 21 21 20 21 24 19 16 15 18 23 23 25 25 20 22 23 24 25 25 25 26 28 29 30 30 29 28 27 31 34 34 36
14 20 22 27 27 24 19 21 24 25 23 20 22 23 21 21 22 20 20 21 19 19 24 31 33 28 30 24 26 23 23 24 24 26 28 27 28 28 28 29 30 32 34 35
Wind_Direction
214 218 221 226 231 237 244 250 246 240 250 286 283 290 289 302 293 303 307 303 312 313 307 349 4 2 10 3 347 215 199 213 204 218 209 204 202 181 185 197 200 200 207 211
216 227 230 228 237 234 241 249 247 240 243 289 283 287 290 298 301 311 296 279 280 300 271 292 350 359 7 11 7 181 197 193 185 196 197 210 209 194 211 191 203 208 216 225
219 235 230 226 230 232 237 242 247 241 250 284 289 282 286 283 294 295 306 282 267 285 265 237 241 338 6 26 30 73 173 193 203 208 213 215 200 213 225 192 210 211 224 230
226 222 237 230 232 231 239 236 242 248 273 281 296 276 287 285 285 289 290 277 264 264 274 242 231 224 246 33 48 58 90 151 185 230 215 225 208 217 224 206 210 223 232 228
216 228 217 207 226 223 238 241 233 257 278 284 279 266 277 278 278 281 282 289 269 243 249 242 199 223 225 189 84 84 94 105 147 205 197 207 211 217 222 214 217 231 233 245
231 235 229 234 239 232 230 234 251 271 273 248 269 245 280 262 277 289 278 270 286 225 226 240 231 239 231 218 196 161 133 120 123 120 129 146 190 193 202 221 226 223 216 211
223 228 206 204 221 221 227 225 213 260 215 231 248 230 256 275 279 281 273 264 259 233 217 223 216 220 288 248 227 211 199 168 150 145 144 149 159 172 177 190 201 203 203 205
210 230 225 221 222 211 213 210 176 197 195 243 208 229 248 270 270 281 276 258 233 226 215 216 217 196 184 232 248 235 221 213 201 183 176 178 179 180 185 193 197 202 207 213
200 230 225 227 236 225 220 214 229 246 297 270 240 247 259 276 283 286 263 234 224 230 215 213 224 226 222 218 239 255 236 227 217 214 213 206 212 213 212 215 217 216 219 220
220 236 230 237 224 232 230 240 208 207 175 222 241 237 235 280 303 274 237 241 230 224 215 219 222 229 237 244 242 246 236 231 232 227 225 223 220 223 223 223 221 228 235 239
229 231 229 218 202 229 214 225 239 248 244 193 206 250 274 283 263 272 227 224 209 206 225 232 237 234 241 247 255 255 257 251 238 234 239 238 238 238 235 233 232 234 231 232
210 239 244 244 233 216 245 255 242 231 236 237 246 245 245 273 253 253 236 227 234 222 222 238 253 236 234 240 239 249 245 242 247 237 250 237 244 245 253 247 244 245 246 248
92 123 287 254 238 247 256 264 250 246 261 252 239 246 282 269 280 259 237 243 252 256 266 269 251 246 254 264 248 266 245 248 243 247 251 255 260 255 255 255 247 247 245 246
296 338 165 224 295 293 285 259 274 253 249 261 260 267 261 244 259 275 260 261 270 267 277 265 251 255 261 273 265 283 277 246 247 244 250 262 271 275 272 262 253 252 246 252
290 284 286 281 297 285 280 284 280 281 281 259 272 274 278 274 275 269 271 262 266 259 270 250 249 267 268 269 267 272 267 249 250 245 252 273 281 272 271 269 265 251 248 256
271 276 300 311 301 281 306 281 268 272 278 280 289 284 282 285 276 260 250 261 269 258 253 251 256 256 266 263 269 266 260 253 254 263 283 286 283 288 266 268 266 261 261 252
279 264 275 298 306 308 289 31 289 284 271 282 287 287 282 282 280 273 271 266 272 264 251 257 266 259 260 255 265 276 263 254 255 266 278 286 283 294 277 266 262 264 263 261
237 247 254 262 279 228 264 270 289 317 314 294 284 286 276 278 273 284 269 261 262 261 266 266 263 256 252 250 254 267 253 250 260 262 268 280 280 291 281 268 264 264 260 258
218 234 244 236 198 271 268 267 269 298 289 313 311 303 300 263 257 260 265 263 253 259 268 267 255 255 248 246 249 261 256 251 259 259 265 274 275 279 273 266 262 261 261 259
210 222 236 247 263 251 287 292 308 306 289 300 307 308 292 296 268 262 262 258 256 260 263 269 262 256 258 256 248 255 253 251 258 264 268 267 267 267 267 264 262 259 258 257
202 221 232 244 261 269 270 307 292 257 296 290 300 281 266 289 309 296 270 261 259 260 266 259 261 266 266 263 254 249 249 248 255 261 261 263 260 264 263 261 260 260 260 260
197 199 211 222 245 272 295 3 345 315 325 315 298 314 282 272 283 301 281 255 255 255 264 265 262 259 260 254 243 237 236 244 252 255 260 258 261 262 264 263 262 261 261 263
228 224 220 222 244 276 279 284 299 302 311 306 311 304 305 268 315 299 284 273 258 266 260 257 248 242 235 229 232 242 248 253 256 259 259 263 265 269 270 268 267 266 258 254
243 239 242 248 255 258 266 280 286 289 300 295 297 309 329 270 256 311 283 274 269 253 244 226 231 238 246 254 253 257 260 261 265 266 267 271 274 275 273 269 262 253 252 252
260 256 254 265 270 278 282 285 288 282 301 277 275 277 298 316 327 281 297 292 281 264 259 238 235 231 243 254 256 262 265 263 265 269 273 277 278 276 271 263 254 253 254 256
248 248 261 272 274 273 281 294 295 294 281 282 274 261 268 295 298 312 298 288 285 285 276 269 265 248 243 254 257 263 265 271 275 278 278 278 279 277 272 267 265 264 265 267
Height
3061 3062 3057 3065 3072 3076 3080 3080 3080 3081 3083 3082 3079 3077 3077 3077 3075 3076 3077 3077 3075 3073 3072 3071 3071 3071 3070 3066 3062 3061 3064 3069 3075 3080 3084 3085 3089 3098 3105 3113 3119 3123 3124 3128
3058 3051 3059 3067 3072 3073 3075 3076 3076 3078 3080 3079 3076 3073 3073 3073 3073 3072 3073 3073 3074 3072 3071 3070 3071 3070 3069 3065 3060 3054 3061 3069 3073 3077 3082 3087 3089 3095 3097 3105 3111 3116 3117 3123
3049 3053 3057 3061 3065 3068 3070 3070 3074 3076 3076 3075 3074 3070 3069 3070 3070 3070 3069 3069 3070 3070 3070 3070 3070 3070 3070 3069 3066 3062 3064 3066 3072 3076 3078 3083 3086 3090 3093 3100 3104 3110 3113 3118
3047 3051 3053 3054 3058 3064 3065 3067 3071 3073 3075 3073 3072 3066 3066 3066 3066 3066 3067 3067 3067 3068 3068 3069 3070 3070 3069 3069 3069 3066 3065 3067 3069 3074 3075 3079 3082 3086 3093 3098 3101 3105 3111 3115
3040 3043 3049 3049 3052 3058 3061 3066 3068 3071 3071 3071 3068 3069 3061 3062 3061 3062 3063 3064 3065 3066 3066 3068 3068 3069 3069 3069 3070 3071 3070 3070 3070 3072 3072 3076 3082 3087 3091 3094 3098 3102 3105 3109
3039 3042 3046 3049 3052 3056 3061 3063 3065 3067 3067 3065 3064 3066 3055 3057 3058 3057 3058 3060 3062 3063 3065 3065 3066 3066 3068 3069 3071 3072 3072 3073 3074 3072 3073 3076 3079 3081 3085 3090 3095 3098 3102 3106
3035 3036 3041 3045 3046 3051 3055 3059 3061 3064 3064 3060 3059 3060 3053 3054 3053 3054 3055 3056 3058 3060 3062 3063 3064 3065 3066 3068 3070 3071 3072 3073 3075 3077 3078 3080 3081 3084 3088 3091 3094 3097 3100 3104
3030 3033 3034 3038 3041 3046 3047 3051 3053 3061 3061 3056 3055 3052 3050 3050 3050 3051 3051 3051 3053 3056 3058 3061 3063 3064 3065 3067 3068 3070 3071 3073 3075 3076 3078 3079 3082 3085 3089 3092 3094 3095 3098 3103
3024 3027 3029 3031 3036 3042 3045 3045 3052 3052 3053 3054 3050 3047 3047 3046 3046 3046 3045 3046 3050 3053 3055 3057 3060 3061 3063 3065 3067 3068 3070 3071 3074 3076 3078 3079 3081 3084 3087 3089 3091 3094 3098 3099
3020 3023 3025 3028 3031 3035 3039 3044 3047 3047 3051 3051 3044 3044 3044 3044 3043 3043 3042 3044 3046 3050 3052 3054 3057 3059 3060 3062 3063 3065 3067 3068 3071 3074 3076 3078 3080 3082 3084 3085 3087 3090 3092 3094
3018 3021 3024 3026 3028 3031 3035 3036 3039 3041 3041 3040 3042 3038 3040 3040 3042 3041 3042 3042 3044 3047 3050 3052 3054 3055 3057 3058 3059 3061 3063 3064 3067 3070 3073 3074 3077 3078 3079 3080 3082 3083 3085 3087
3014 3016 3018 3021 3025 3028 3031 3033 3034 3034 3036 3034 3033 3033 3039 3041 3041 3041 3041 3043 3044 3045 3047 3049 3051 3051 3052 3053 3054 3055 3057 3058 3063 3065 3066 3068 3070 3072 3073 3074 3076 3077 3079 3081
3013 3014 3015 3017 3022 3024 3024 3026 3028 3029 3030 3026 3031 3032 3036 3037 3038 3040 3040 3041 3042 3043 3044 3045 3046 3047 3049 3049 3049 3049 3050 3052 3055 3058 3060 3062 3064 3064 3064 3065 3069 3069 3071 3072
3011 3012 3014 3017 3019 3019 3019 3020 3022 3024 3023 3024 3022 3028 3032 3034 3035 3037 3039 3039 3040 3040 3040 3040 3041 3043 3044 3045 3045 3045 3046 3047 3048 3050 3052 3054 3055 3055 3056 3059 3059 3060 3060 3061
3011 3011 3013 3015 3017 3015 3015 3015 3017 3018 3020 3019 3021 3021 3026 3028 3028 3029 3030 3032 3033 3034 3035 3035 3036 3038 3039 3039 3040 3041 3042 3042 3043 3044 3045 3047 3048 3047 3047 3048 3049 3050 3051 3052
3009 3010 3010 3012 3013 3013 3011 3013 3013 3013 3013 3012 3013 3013 3019 3021 3021 3022 3023 3025 3025 3026 3028 3029 3030 3031 3032 3033 3034 3035 3036 3036 3037 3038 3039 3040 3039 3039 3039 3039 3039 3040 3041 3042
3005 3007 3008 3007 3009 3008 3009 3007 3007 3006 3007 3008 3006 3008 3012 3012 3014 3016 3017 3018 3018 3019 3020 3021 3022 3024 3024 3026 3027 3027 3029 3031 3031 3032 3032 3032 3031 3030 3030 3030 3030 3031 3032 3033
3000 3004 3006 3005 3005 3006 3002 3004 3004 3004 3004 3003 3000 2999 3002 3005 3007 3007 3010 3010 3011 3012 3013 3013 3013 3015 3017 3019 3020 3021 3021 3023 3024 3025 3025 3025 3024 3023 3022 3022 3022 3022 3023 3024
2998 3001 3002 3001 2999 2997 2998 3001 3001 2999 2996 3000 2996 2993 2992 2992 2994 2994 3002 3004 3003 3004 3005 3006 3006 3008 3009 3011 3012 3013 3014 3016 3017 3018 3019 3018 3016 3015 3014 3014 3014 3015 3015 3016
2991 2995 2999 2997 2998 2996 2991 2997 2997 2993 2987 2994 2992 2990 2988 2986 2984 2988 2995 2994 2995 2996 2996 2998 2999 3000 3001 3002 3004 3005 3006 3008 3009 3011 3010 3010 3008 3007 3006 3005 3005 3005 3006 3006
2987 2991 2993 2996 2997 2991 2990 2991 2989 2991 2992 2987 2986 2985 2985 2983 2981 2980 2981 2982 2985 2987 2989 2989 2989 2991 2992 2993 2994 2996 2997 2998 3000 3000 3000 2999 2999 2998 2997 2996 2995 2995 2996 2996
2985 2987 2990 2994 2995 2989 2985 2987 2989 2989 2986 2984 2981 2981 2980 2979 2976 2975 2976 2975 2976 2978 2980 2979 2980 2980 2980 2981 2983 2986 2987 2989 2990 2989 2990 2989 2988 2987 2986 2985 2984 2984 2985 2986
2984 2984 2985 2986 2982 2984 2983 2982 2982 2981 2980 2978 2976 2974 2974 2973 2972 2971 2971 2971 2972 2972 2972 2973 2973 2973 2973 2974 2976 2978 2980 2980 2981 2980 2980 2979 2979 2977 2976 2975 2975 2974 2975 2976
2977 2979 2978 2980 2977 2979 2978 2978 2978 2976 2975 2973 2972 2969 2969 2967 2963 2966 2966 2965 2965 2965 2966 2966 2966 2967 2967 2967 2969 2971 2971 2972 2972 2972 2971 2970 2969 2968 2967 2966 2967 2968 2968 2968
2973 2973 2972 2970 2972 2973 2973 2971 2970 2970 2968 2968 2967 2965 2967 2963 2961 2959 2959 2958 2958 2959 2959 2959 2958 2960 2961 2962 2962 2963 2963 2961 2960 2961 2961 2959 2958 2958 2958 2959 2959 2959 2959 2959
2967 2968 2968 2967 2967 2968 2968 2966 2965 2963 2965 2962 2963 2963 2961 2959 2958 2955 2952 2953 2953 2953 2953 2953 2953 2954 2952 2955 2953 2954 2953 2952 2951 2951 2951 2950 2949 2948 2948 2949 2949 2950 2949 2949